Find Starlink 5454

NORAD ID: 54774 Int'l Des: 2022-175 Owner: SPXS Country: US Constellation: starlink operational
LEOCIRCULAR

Live-Position

3D-Globus wird geladen...

Über Starlink 5454

Beschreibung wird geladen...

Nächste Überflüge

Passes for default location (London). Set your location on the main map for personalized predictions.

Höhenverlauf

Loading altitude history...

Zweizeiliger Elementsatz

1 54774U 22175S 26126.05004822 -.00001435 00000-0 -72157-4 0 9993
2 54774 53.2146 131.2993 0001138 81.2259 278.8862 15.08822025188795
Epoch: 6. Mai 2026 • Age: 8 hours

Aktueller Status

Höhe 543.1 km
Geschwindigkeit 7.60 km/s
Subsatellitenpunkt 41.68°N, 166.02°E
Startdatum 17. Dez. 2022
Alter 3.3 years
Typ internet

Technische Details

Klassifizierung Payload
Masse 305.00 kg
Trockenmasse 290.00 kg
Gesamtmasse 305.00 kg
Länge 0.20 m
Durchmesser 2.80 m
Spannweite 9.00 m
Form Box + pan
Hersteller SPXS
Bus-Typ Starlink
Phasenstatus In Orbit
Besitzer/Staat SPXS/US

Most Searched